SCOUT X-1 DEB, 4026

Orbit data source: Space-Track

SCOUT X-1 DEB, 4026 is space debris in LEO originally from a launch on Thu, 16 Feb 1961 UTC launched from the Wallops Island (WLPIS). Debris objects in space refer to the collection of defunct objects orbiting the Earth. Examples of debris include non-operational satellites, rocket bodies, and fragments generated from explosions, collisions, or faulty payload assembly.

Loading next visibility...
Identifier
4026, 1961-004G
Orbit
LEO
Country
Flag of USUS
Related business
Manufacturer
Unknown
Mission
Spacecraft
Bus & Motor
Unknown
Mass
Unknown
Launch date (UTC)
1961-02-16 (65 years ago)
Launch vehicle
Unknown
Launch site
Wallops Island (WLPIS)
Object type
Payload
Rocket body
Debris
Shape & HBR
Unknown shape, 0.1 m
Radar Cross Section
Small (<0.1 m²)

Expand to show TLE details & history
Last TLE update: 7 hours ago

TLE from 7 hours ago
0 SCOUT X-1 DEB
1 04026U 61004G   26070.92379391  .00011619  00000-0  21335-2 0  9995
2 04026  38.8224 272.4396 0381593 222.1303 134.9518 14.27646465119890
Epoch: 2026-03-11T22:10Z
TLE epoch observation values (Epoch: 2026-03-11T22:10:15.793Z)
Latitude
-0.00005°
Longitude
130.29267°
Altitude
997.452 km
Speed
7.253 km/s
True Right ascension
18h 09m 45s
True Declination
0° 00' 00"
Sunlit
Object was in daylight at epoch
Visualization orbit readout
Latitude
Unknown
Longitude
Unknown
Altitude
Unknown
Speed
Unknown
Apparent Right ascension
Unknown
Apparent Declination
Unknown
Sunlit
N/A
Visualization observer readout
Local Sidereal Time
09:26:24
Azimuth
Unknown
Elevation
Unknown
Doppler factor
Unknown
Orbital elements
Apogee altitude
1,076.132 km
Perigee altitude
528.143 km
Semi-major axis
7,180.275 km
Eccentricity
0.03816
Inclination
38.8224°
RAAN
272.4396°
Arg. of periapsis
222.1303°
True anomaly
137.94402°
Mean anomaly
134.9518°
Eccentric anomaly
136.45796°
Mean motion
3.56723 °/min
Orbital period
100.92 mins
BSTAR
0.0021335
Loading maneuver chart data...
Computing Atmospheric mass density...
Loading historical data...
Loading historical data...
Loading historical data...
Loading historical data...
Loading historical data...
Loading historical data...
Loading historical data...

Documentation

Showing up to 5 results
|